XSE weather

Sebba Airport
Sebba, Seno, Burkina Faso

Public forecast

Using degrees Celsius for public forecast. Weather courtesy of forecast.io.

Closest aviation weather report (METAR) to Sebba Airport

Report is more than 6 hours old.

Closest report is Dori Airport, 47.5 nm (87.9 km) NW. Retrieved 2009/09/21 17:00 UTC (11 years ago):

DFEE 211700Z 14002KT 9/9 FEW020 BKN260 34/21

Closest aviation forecast (TAF) to Sebba Airport

Closest forecast is Diori Hamani International Airport, 97.3 nm (180.3 km) E. Retrieved 2020/04/03 06:21 UTC (5 hours ago):

TAF DGAA 030500Z 0306/0412 27008KT CAVOK TAF DRRN 030500Z 0306/0412 06010KT 8000 NSC TEMPO 0306/0308 4000 DU TEMPO 0318/0320 4000 DU